Weather History for Denver, CO

Change the Weather History Date:

Wednesday, January 1, 2014

  Actual Average Record
Temperature  
Mean Temperature 27 °F 30 °F  
Max Temperature 41 °F 43 °F 67 °F (1882)
Min Temperature 13 °F 17 °F -19 °F (1901)
Degree Days  
Heating Degree Days 38 35  
Month to date heating degree days 38 35  
Since 1 July heating degree days 2489 2503  
Cooling Degree Days 0 0  
Month to date cooling degree days 0 0  
Year to date cooling degree days 0 0  
Moisture  
Dew Point 26 °F    
Average Humidity 67    
Maximum Humidity 92    
Minimum Humidity 41    
Precipitation  
Precipitation 0.18 in 0.01 in 0.50 in (1897)
Month to date precipitation 0.18 0.01  
Year to date precipitation 0.18 0.01  
Snow  
Snow 2.20 in - - ()
Month to date snowfall 2.2  
Since 1 July snowfall 10.3  
Snow Depth 0.00 in    
Sea Level Pressure  
Sea Level Pressure 30.14 in    
Wind  
Wind Speed 10 mph (NNE)    
Max Wind Speed 32 mph    
Max Gust Speed 41 mph    
Visibility 5 miles    
Events Fog , Snow    
T = Trace of Precipitation, MM = Missing Value Source: NWS Daily Summary

Daily Weather History Graph

Daily Weather History Graph

Search for Another Location

Airport:

Trip Planner

Search our weather history database for the weather conditions in past years. The results will help you decide how hot, cold, wet, or windy it might be!

Date:

Astronomy

Jan. 01, 2014 Rise Set
Actual Time 7:20 AM MST 4:44 PM MST
Civil Twilight 6:49 AM MST 5:15 PM MST
Nautical Twilight 6:15 AM MST 5:48 PM MST
Astronomical Twilight 5:43 AM MST 6:21 PM MST
Moon 7:12 AM MST (1/1) 5:32 PM MST (1/1)
Length of Visible Light 10h 25m
Length of Day
9h 24m
New Moon, 0% of the Moon is Illuminated
Jan 1
New Moon
Jan 7
First Quarter
Jan 15
Full
Jan 23
Last Quarter
Jan 30
New

Hourly Weather History & Observations

Time (MST) Temp. Windchill Dew Point Humidity Pressure Visibility Wind Dir Wind Speed Gust Speed Precip Events Conditions
12:53 AM 37.9 °F 31.5 °F 19.0 °F 47% 29.81 in 10.0 mi SW 9.2 mph - N/A   Mostly Cloudy
1:53 AM 36.0 °F 29.6 °F 19.9 °F 52% 29.82 in 10.0 mi SW 8.1 mph - N/A   Scattered Clouds
2:53 AM 36.0 °F 31.1 °F 19.9 °F 52% 29.81 in 10.0 mi WSW 5.8 mph - N/A   Mostly Cloudy
3:53 AM 41.0 °F 33.9 °F 19.9 °F 43% 29.83 in 10.0 mi North 12.7 mph - N/A   Overcast
4:53 AM 37.0 °F 29.8 °F 21.0 °F 52% 29.89 in 10.0 mi ENE 10.4 mph - N/A   Overcast
5:53 AM 34.0 °F 28.0 °F 21.9 °F 61% 29.94 in 10.0 mi ESE 6.9 mph - N/A   Overcast
6:53 AM 34.0 °F 27.2 °F 27.0 °F 75% 30.02 in 5.0 mi NE 8.1 mph - 0.00 in Snow Light Snow
6:57 AM 34.0 °F 26.6 °F 27.0 °F 75% 30.03 in 1.5 mi ENE 9.2 mph - 0.00 in Snow Light Snow
7:01 AM 34.0 °F 25.5 °F 28.0 °F 79% 30.03 in 0.8 mi NE 11.5 mph - 0.00 in Snow Light Snow
7:06 AM 33.1 °F 23.4 °F 28.9 °F 85% 30.04 in 0.5 mi NNE 13.8 mph - 0.00 in Fog , Snow Light Snow
7:10 AM 32.0 °F 20.8 °F 30.0 °F 92% 30.04 in 0.5 mi North 17.3 mph 21.9 mph 0.01 in Fog , Snow Snow
7:18 AM 32.0 °F 21.2 °F 30.0 °F 92% 30.05 in 0.5 mi North 16.1 mph - 0.02 in Fog , Snow Snow
7:43 AM 30.9 °F 18.4 °F 28.9 °F 92% 30.06 in 1.0 mi NNE 20.7 mph - 0.03 in Snow Light Snow
7:50 AM 30.2 °F 18.1 °F 28.4 °F 93% 30.06 in 2.0 mi NNE 18.4 mph - 0.03 in Snow Light Snow
7:53 AM 30.9 °F 19.8 °F 28.9 °F 92% 30.07 in 2.0 mi NNE 16.1 mph - 0.04 in Snow Light Snow
8:00 AM 30.9 °F 19.4 °F 28.9 °F 92% 30.07 in 5.0 mi NNE 17.3 mph - 0.00 in Snow Light Snow
8:24 AM 30.9 °F 20.7 °F 28.0 °F 89% 30.09 in 8.0 mi NNE 13.8 mph - 0.00 in Snow Light Snow
8:50 AM 30.2 °F 18.9 °F 28.4 °F 93% 30.11 in 3.0 mi NNE 16.1 mph - 0.00 in Snow Light Snow
8:53 AM 30.9 °F 20.7 °F 28.9 °F 92% 30.12 in 3.0 mi NNE 13.8 mph - 0.00 in Snow Light Snow
9:00 AM 30.9 °F 21.7 °F 28.9 °F 92% 30.12 in 2.0 mi NNE 11.5 mph - 0.00 in Snow Light Snow
9:07 AM 30.9 °F 21.7 °F 28.9 °F 92% 30.12 in 0.8 mi North 11.5 mph - 0.00 in Snow Light Snow
9:32 AM 30.0 °F 23.2 °F 28.0 °F 92% 30.14 in 0.2 mi NNW 6.9 mph - 0.02 in Fog , Snow Heavy Snow
9:43 AM 30.0 °F 24.1 °F 28.0 °F 92% 30.15 in 0.2 mi North 5.8 mph - 0.05 in Fog , Snow Heavy Snow
9:50 AM 30.2 °F 23.4 °F 28.4 °F 93% 30.15 in 0.5 mi NNW 6.9 mph - 0.06 in Fog , Snow Snow
9:53 AM 30.0 °F 23.2 °F 28.0 °F 92% 30.17 in 0.5 mi North 6.9 mph - 0.06 in Fog , Snow Snow
9:59 AM 30.0 °F 25.2 °F 28.0 °F 92% 30.14 in 0.2 mi NNE 4.6 mph - 0.01 in Fog , Snow Heavy Snow
10:14 AM 30.0 °F - 28.9 °F 96% 30.15 in 3.0 mi Calm Calm - 0.05 in Snow Light Snow
10:26 AM 32.0 °F - 28.9 °F 88% 30.15 in 3.0 mi Calm Calm - 0.05 in Snow Light Snow
10:42 AM 32.0 °F 28.7 °F 28.0 °F 85% 30.15 in 9.0 mi NNE 3.5 mph - 0.05 in Snow Light Snow
10:53 AM 32.0 °F 27.5 °F 28.0 °F 85% 30.17 in 6.0 mi NE 4.6 mph - 0.05 in Snow Light Snow
11:39 AM 33.1 °F 30.0 °F 28.9 °F 85% 30.14 in 4.0 mi NNE 3.5 mph - 0.00 in Snow Light Snow
11:49 AM 33.8 °F 28.6 °F 28.4 °F 81% 30.14 in 4.0 mi NNE 5.8 mph - 0.00 in Snow Light Snow
11:53 AM 33.1 °F 25.5 °F 28.9 °F 85% 30.14 in 4.0 mi NNE 9.2 mph - 0.00 in Snow Light Snow
12:20 PM 33.1 °F 27.7 °F 30.0 °F 89% 30.13 in 5.0 mi North 5.8 mph - 0.01 in Snow Light Snow
12:53 PM 33.1 °F 28.7 °F 28.9 °F 85% 30.14 in 10.0 mi NNE 4.6 mph - 0.01 in   Overcast
1:29 PM 33.1 °F 26.9 °F 28.9 °F 85% 30.14 in 2.5 mi NNE 6.9 mph - 0.00 in Snow Light Snow
1:39 PM 33.1 °F 25.5 °F 30.0 °F 89% 30.14 in 2.5 mi NNE 9.2 mph - 0.00 in Snow Light Snow
1:53 PM 32.0 °F 23.0 °F 30.0 °F 92% 30.16 in 0.5 mi NE 11.5 mph - 0.01 in Fog , Snow Snow
2:13 PM 33.1 °F 24.9 °F 30.9 °F 92% 30.14 in 5.0 mi NE 10.4 mph - 0.00 in Snow Light Snow
2:44 PM 32.0 °F 23.6 °F 30.0 °F 92% 30.17 in 10.0 mi North 10.4 mph - 0.00 in   Mostly Cloudy
2:53 PM 33.1 °F 26.9 °F 30.0 °F 89% 30.19 in 4.0 mi North 6.9 mph - 0.00 in Snow Light Snow
2:57 PM 32.0 °F 23.6 °F 30.0 °F 92% 30.18 in 1.8 mi North 10.4 mph - 0.00 in Snow Light Snow
2:59 PM 32.0 °F 23.6 °F 30.0 °F 92% 30.18 in 2.0 mi NNE 10.4 mph - 0.00 in Snow Light Snow
3:14 PM 32.0 °F 24.8 °F 28.9 °F 88% 30.19 in 3.0 mi North 8.1 mph - 0.01 in Snow Light Snow
3:18 PM 32.0 °F 24.2 °F 28.9 °F 88% 30.20 in 2.0 mi North 9.2 mph - 0.01 in Snow Light Snow
3:24 PM 32.0 °F 18.1 °F 28.9 °F 88% 30.21 in 0.2 mi North 27.6 mph 41.4 mph 0.01 in Fog , Snow Snow
3:31 PM 28.9 °F 13.2 °F 27.0 °F 92% 30.22 in 0.5 mi North 31.1 mph 41.4 mph 0.01 in Fog , Snow Light Snow
3:50 PM 28.4 °F 15.1 °F 24.8 °F 86% 30.23 in 2.0 mi North 20.7 mph 33.4 mph 0.01 in Snow Light Snow
3:53 PM 28.0 °F 14.3 °F 26.1 °F 92% 30.25 in 4.0 mi NNE 21.9 mph - 0.01 in Snow Light Snow
4:16 PM 28.0 °F 14.9 °F 25.0 °F 88% 30.23 in 10.0 mi NNE 19.6 mph - 0.00 in   Overcast
4:26 PM 28.0 °F 16.1 °F 25.0 °F 88% 30.24 in 0.5 mi NNE 16.1 mph - 0.00 in Snow Light Snow
4:33 PM 28.0 °F 17.5 °F 25.0 °F 88% 30.24 in 0.5 mi NE 12.7 mph - 0.00 in Snow Light Snow
4:36 PM 28.0 °F 16.1 °F 26.1 °F 92% 30.24 in 5.0 mi NE 16.1 mph - 0.00 in Snow Light Snow
4:53 PM 27.0 °F 16.7 °F 25.0 °F 92% 30.29 in 9.0 mi NE 11.5 mph - 0.00 in   Mostly Cloudy
5:48 PM 24.8 °F - 21.2 °F 86% 30.28 in 10.0 mi Calm Calm - 0.00 in   Mostly Cloudy
5:53 PM 25.0 °F - 23.0 °F 92% 30.33 in 10.0 mi Calm Calm - 0.00 in   Mostly Cloudy
6:53 PM 21.9 °F 11.7 °F 19.9 °F 92% 30.35 in 10.0 mi SSW 9.2 mph - N/A   Partly Cloudy
7:53 PM 21.9 °F 10.4 °F 19.9 °F 92% 30.36 in 10.0 mi SSW 11.5 mph - N/A   Scattered Clouds
8:53 PM 21.9 °F 9.2 °F 19.0 °F 89% 30.35 in 10.0 mi SSW 13.8 mph - N/A   Partly Cloudy
9:53 PM 21.9 °F 9.8 °F 18.0 °F 85% 30.34 in 10.0 mi SSW 12.7 mph - N/A   Partly Cloudy
10:53 PM 12.9 °F -0.9 °F 10.0 °F 88% 30.35 in 10.0 mi South 11.5 mph - N/A   Clear
11:53 PM 12.9 °F -0.2 °F 10.0 °F 88% 30.33 in 10.0 mi South 10.4 mph - N/A   Clear